Location: Martin
(51.1667°N, 1.3500°E)
Time: 08:16:11
(UTC+00:00)

Daily predictions for brighter satellites

Satellite Brightness Start Highest point End
(mag) Time Altitude Azimuth Time Altitude Azimuth Time Altitude Azimuth
ERS-1 Rocket 3.3 20:20:01 10° SE 20:24:52 52° ENE 20:29:46 10° N
MOS 1 4.4 20:19:55 10° SSE 20:25:36 86° WSW 20:31:20 10° NNW
ATLAS 2AS CENTAUR R/B 2.9 20:18:22 10° SW 20:25:46 86° SE 20:32:53 10° NE
USA 59 Rocket 2.2 20:27:14 10° NNW 20:29:10 14° NNE 20:31:18 10° NE
SPOT 3 Rocket 4.2 20:24:51 10° SE 20:29:39 41° ENE 20:34:28 10° N
Cosmos 1782 2.9 20:26:32 10° SSW 20:30:20 77° W 20:34:10 10° N
IRS-1A Rocket 4.3 20:26:44 10° SSE 20:32:22 77° ENE 20:37:57 10° NNW
Cosmos 1943 Rocket 3.2 20:28:12 10° NW 20:33:34 45° WSW 20:38:53 10° S
USA 281 3.7 20:28:16 10° SE 20:34:37 54° NE 20:41:01 10° NNW
Cosmos 1420 Rocket 4.1 20:29:19 10° NNW 20:34:40 83° ENE 20:39:59 10° SSE
Cosmos 1743 3.2 20:34:31 10° N 20:37:58 39° ENE 20:41:22 10° SE
Cosmos 2278 Rocket 4.0 20:33:29 10° NW 20:38:08 27° WSW 20:42:45 10° SSW
NOSS 3-1 (A) 4.3 20:31:55 10° NW 20:39:03 70° SW 20:47:46 10° SSE
ISS -3.7 20:35:50 10° W 20:39:11 81° N 20:42:31 10° E
Cosmos 972 4.3 20:35:51 10° SSW 20:40:43 75° ESE 20:45:42 10° NNE
USA 245 2.1 20:42:40 11° SSE 20:44:46 55° ENE 20:46:59 10° N
Cosmos 2297 3.8 20:39:58 10° NNW 20:45:46 76° ENE 20:51:24 10° SE
Cosmos 1634 Rocket 4.2 20:40:06 10° N 20:46:20 58° ENE 20:52:29 10° SSE
Cosmos 2112 Rocket 4.2 20:45:00 10° S 20:50:10 56° ESE 20:55:22 10° NNE
USA 290 2.9 20:47:04 10° NW 20:50:12 49° WSW 20:53:19 10° S
Cosmos 1766 Rocket 3.7 20:46:41 10° N 20:51:06 65° ENE 20:55:31 10° SSE
Okean-O 3.8 20:48:12 10° S 20:52:22 41° W 20:56:34 10° NNW
USA 229 DEB 4.1 20:46:43 10° NW 20:54:01 76° NE 21:01:46 11° SE
USA 229 4.1 20:46:49 10° NW 20:54:07 75° NE 21:01:53 11° SE
Cosmos 2034 Rocket 4.3 20:49:09 10° NNW 20:55:20 73° W 21:01:33 10° S
Cosmos-2242 4.5 20:52:31 10° SW 20:56:28 39° WNW 21:00:29 10° N
Cosmos 1726 3.1 20:53:49 10° NNE 20:56:28 24° ENE 20:58:35 13° ESE
Spot 2 Rocket 3.5 20:54:09 10° SSE 20:59:10 77° ENE 21:04:14 10° NNW
Cosmos 1680 Rocket 3.5 20:55:07 10° SSW 21:00:24 78° ESE 21:05:41 10° NNE
Meteor 2-6 Rocket 4.5 20:59:15 10° S 21:04:41 51° E 21:09:59 10° NNE
USA 32 4.1 21:01:57 10° S 21:07:07 69° E 21:12:20 10° N
Tsikada Rocket 4.0 21:03:23 10° S 21:09:33 83° E 21:15:51 10° NNE
CZ-4C R/B 4.4 21:06:41 10° N 21:10:11 44° WNW 21:13:49 10° SW
Sich 1 4.4 21:09:13 10° N 21:12:53 25° ENE 21:15:51 13° ESE
USA 276 1.8 21:12:11 10° W 21:14:18 40° SSW 21:15:14 25° SE
MetOp-A 4.1 21:11:24 15° SE 21:14:56 53° ENE 21:19:35 10° N
Cosmos 2263 4.3 21:09:33 10° NNW 21:15:16 74° ENE 21:20:00 15° SE
SL-16 R/B 2.2 21:10:06 10° SSW 21:15:46 82° ESE 21:21:29 10° NNE
MOS 1 Rocket 3.5 21:13:56 13° SSE 21:18:26 84° ENE 21:23:44 10° NNW
Cosmos 2056 Rocket 4.1 21:13:14 10° NNW 21:18:31 56° WSW 21:23:28 11° S
Lacrosse 5 3.0 21:14:46 10° WNW 21:19:19 33° SW 21:23:08 14° S
Cosmos 1536 3.4 21:16:03 10° N 21:19:43 40° ENE 21:22:15 18° SE
Lacrosse 5 rocket 1.4 21:17:05 10° WSW 21:21:23 89° NNW 21:25:37 10° ENE
Ariane Rocket 3.2 21:16:49 11° S 21:21:38 74° WSW 21:26:44 10° NNW
Cosmos 1452 Rocket 3.8 21:17:32 10° NNW 21:22:44 58° ENE 21:26:45 17° SE
Cosmos 1408 Rocket 4.1 21:18:48 10° N 21:23:07 47° ENE 21:26:12 18° SE
Cosmos 44 3.9 21:18:32 10° NW 21:23:12 45° WSW 21:26:45 15° S
Spot 1 4.2 21:20:26 10° NNE 21:24:23 49° E 21:27:37 15° S
Cosmos 1340 4.3 21:24:28 10° NNE 21:27:02 19° ENE 21:28:49 14° ESE
Okean 1 4.4 21:25:59 18° SE 21:27:52 27° E 21:31:11 10° NNE
Cosmos 2369 Rocket 2.3 21:22:20 10° NNW 21:27:56 73° WSW 21:32:23 16° SSE
Cosmos 2221 3.0 21:24:01 10° SSW 21:28:18 63° WNW 21:32:37 10° N
Cosmos 2084 3.8 21:27:59 10° NW 21:31:34 42° SW 21:33:53 19° S
FALCON 9 R/B 4.5 21:29:09 10° SW 21:35:16 30° SSE 21:51:38 10° ESE
USA 306 2.9 21:37:31 10° WNW 21:41:20 66° NNE 21:45:08 11° E
Cosmos 2237 Rocket 4.3 21:38:14 10° WSW 21:43:13 30° NW 21:48:13 10° NNE
Cosmos 921 Rocket 3.2 21:38:49 10° SSW 21:43:18 81° WNW 21:47:49 10° NNE
Okean 3 Rocket 3.8 21:40:25 10° NNW 21:44:48 67° W 21:48:05 17° S
GEOS 3 Rocket 3.5 21:41:06 10° NE 21:46:20 86° SE 21:51:28 10° SW
ATLAS 3B R/B 4.1 21:43:55 10° NW 21:50:49 35° WSW 21:57:02 12° S
Landsat 5 3.1 21:48:19 10° NNE 21:52:07 88° ESE 21:54:55 17° SSW
SL-8 R/B 4.4 21:50:09 10° SSW 21:54:18 30° SSE 21:58:28 10° E
Cosmos 1500 Rocket 3.5 21:51:11 10° N 21:55:31 72° ENE 21:57:58 25° SSE
Terra 3.3 21:52:53 10° SSW 21:57:04 31° W 22:01:16 10° NNW
Cosmos 1733 3.3 21:55:11 10° N 21:58:39 53° ENE 22:00:07 30° SE
Cosmos 1943 3.2 21:53:57 12° SSW 21:59:08 62° ESE 22:04:44 10° NE
ALOS 2 4.4 21:58:50 12° ESE 22:01:36 21° ENE 22:04:56 10° N
USA 234 3.8 21:55:24 10° E 22:01:50 61° NNE 22:08:16 10° WNW
Cosmos 1048 Rocket 3.9 21:59:01 13° SSW 22:03:36 75° ESE 22:08:44 10° NNE
Cosmos 1805 Rocket 3.5 22:00:03 10° N 22:04:26 74° E 22:06:48 27° SSE
H-2A R/B 3.4 22:02:30 21° ESE 22:04:40 37° ENE 22:08:34 10° N
Cosmos 1842 Rocket 4.0 22:01:42 12° SSW 22:05:44 61° WNW 22:10:09 10° N
Lacrosse 4 Rocket 3.4 22:03:36 10° NNW 22:06:46 22° NE 22:09:59 10° E
Cosmos 494 Rocket 4.0 22:01:42 10° SSW 22:06:48 79° WNW 22:11:57 10° NNE
Meteor 1-10 Rocket 4.2 22:02:23 14° S 22:07:20 90° W 22:13:02 10° NNE
Cosmos 1151 Rocket 3.6 22:08:37 27° SE 22:10:28 42° E 22:14:35 10° NNE
Meteor 2-9 Rocket 4.3 22:05:18 10° NNW 22:11:07 88° W 22:14:56 23° S
Cosmos 1302 Rocket 4.2 22:08:58 10° NNW 22:14:09 65° ENE 22:17:13 24° SE
Meteor 1-11 Rocket 3.9 22:08:47 10° NNW 22:14:22 68° W 22:18:13 21° S
ISS -3.6 22:12:31 10° W 22:15:46 52° SSW 22:16:32 41° SSE
Cosmos 1633 Rocket 4.3 22:12:01 10° N 22:15:59 31° ENE 22:18:08 21° ESE
Meteor 2-10 4.2 22:10:39 10° NNW 22:16:19 83° W 22:19:41 24° S
ATLAS 2AS CENTAUR R/B 4.2 22:10:37 10° W 22:17:24 40° NNW 22:23:56 10° NE
Meteor 1-19 Rocket 4.3 22:14:06 21° S 22:18:11 72° E 22:23:58 10° NNE
ARIANE 5 R/B 2.6 22:16:04 29° SSE 22:18:16 74° ENE 22:22:35 10° N
Cosmos 1340 Rocket 3.0 22:17:22 32° SSE 22:18:57 55° E 22:22:53 10° NNE
USA 281 4.1 22:14:24 16° S 22:19:17 41° WSW 22:25:29 10° NW
USA 59 Rocket 0.6 22:16:00 10° NW 22:19:32 48° NE 22:22:59 17° ESE
Cosmos 1331 Rocket 4.3 22:15:04 10° NNW 22:20:15 60° WSW 22:23:13 25° S
NOSS 2-1 (E) 4.1 22:16:52 10° NW 22:20:25 49° NE 22:23:50 17° ESE
MINOTAUR 4 R/B 3.7 22:18:58 10° NNE 22:21:55 53° ESE 22:22:22 47° SE
Cosmos 1110 Rocket 4.5 22:16:57 10° NNW 22:22:09 54° WSW 22:25:12 24° S
BREEZE-M DEB (TANK) 4.3 22:18:51 10° WSW 22:22:56 74° SSE 22:41:10 10° E
H-2A R/B 4.4 22:23:34 10° ENE 22:24:47 11° E 22:25:53 10° E
CZ-2C R/B 3.7 22:20:40 10° NNE 22:25:12 64° ESE 22:27:22 29° S
Cosmos 1726 3.8 22:27:09 10° NW 22:29:36 21° W 22:31:07 15° SW
NOSS 2-1 (D) 3.7 22:28:27 10° NW 22:32:03 62° NE 22:34:55 22° ESE
Nadezhda 4 Rocket 4.0 22:30:38 21° S 22:34:57 89° W 22:41:14 10° N
Cosmos 1805 3.0 22:35:14 10° N 22:38:58 84° E 22:40:09 42° SSE
IRIDIUM 106 4.3 22:36:50 10° N 22:42:06 85° E 22:44:45 30° S
Cosmos 1743 Rocket 4.2 22:41:36 10° NNW 22:45:50 48° W 22:47:56 26° SSW
Sich 1 4.0 22:46:23 10° NNW 22:50:28 40° W 22:52:35 24° SW
Spot 2 4.4 22:50:57 32° SE 22:53:00 70° ENE 22:57:48 10° NNW
Cosmos 1975 2.7 22:51:57 10° NNW 22:55:54 83° W 22:57:09 43° S
Lacrosse 5 rocket 2.8 22:56:05 10° W 23:00:07 39° N 23:04:02 10° ENE
SL-16 R/B 4.4 22:55:51 10° W 23:00:34 26° NW 23:05:17 10° NNE
Cosmos 1340 3.6 22:58:18 10° NNW 23:01:23 32° W 23:02:14 28° SW
Cosmos 1603 3.8 22:57:29 15° SW 23:02:11 76° WNW 23:07:56 10° NNE
Cosmos 1626 1.9 23:04:41 54° ESE 23:04:58 57° E 23:08:10 10° NNE
PSLV R/B 4.2 23:02:31 10° N 23:06:34 63° WNW 23:08:26 30° SW
USA 267 3.5 23:00:51 10° ENE 23:07:06 46° SE 23:10:42 24° SSW
NOSS 2-1 (C) 3.4 23:03:34 10° NW 23:07:17 76° SW 23:09:08 36° SSE
Cosmos 1674 3.9 23:07:50 24° E 23:08:11 24° E 23:11:02 10° NE
Cosmos 1627 Rocket 4.5 23:05:12 27° S 23:08:53 88° E 23:15:13 10° N
Meteor 1-27 Rocket 4.4 23:04:40 16° SW 23:08:53 48° WNW 23:14:15 10° N
Cosmos 2369 Rocket 4.4 23:08:26 10° WNW 23:10:57 13° W 23:13:28 10° WSW
USA 306 2.8 23:11:19 10° WNW 23:15:05 47° SSW 23:15:15 47° SSW
Cosmos 2026 Rocket 4.0 23:12:22 27° SSW 23:16:06 83° W 23:22:25 10° N
Cosmos 1833 Rocket 3.9 23:17:10 22° SE 23:18:45 25° ESE 23:23:15 10° NE
NOSS 3-3 (C) 4.4 23:26:06 31° SSE 23:27:44 37° ESE 23:33:28 10° NE
Cosmos 220 Rocket 3.9 23:30:05 41° SSW 23:31:32 83° ESE 23:35:54 10° NNE
Cosmos 1515 Rocket 3.7 23:31:37 41° SSE 23:32:53 59° E 23:37:09 10° NNE
GP-B 4.3 23:30:18 10° NNE 23:34:15 31° E 23:35:54 24° ESE
Cosmos 1328 Rocket 3.7 23:33:10 36° SSW 23:34:49 67° WNW 23:39:09 10° N
SL-8 R/B 3.6 23:31:34 10° WSW 23:36:15 59° S 23:40:57 10° E
Cosmos 1553 Rocket 3.9 23:30:32 10° NNW 23:36:38 83° W 23:39:39 32° S
Meteor 1-18 Rocket 4.4 23:33:57 28° SSW 23:37:14 73° WNW 23:43:11 10° N
ALOS 2 2.9 23:36:13 38° SSW 23:37:36 55° W 23:41:56 10° NNW
H-2A R/B 3.8 23:38:30 23° WSW 23:39:43 27° W 23:43:18 10° NW
Cosmos 1470 Rocket 3.7 23:35:54 10° NNW 23:40:21 66° W 23:41:47 40° SSW
Cosmos 1869 Rocket 4.3 23:37:00 10° N 23:41:10 43° ENE 23:42:59 28° SE
USA 234 3.2 23:38:50 13° SE 23:44:47 76° SSW 23:51:22 10° WNW
Lacrosse 4 Rocket 1.3 23:41:26 10° NW 23:45:29 71° WSW 23:46:29 48° S
Meteor 2-4 Rocket 4.3 23:42:30 23° SW 23:46:07 54° WNW 23:51:58 10° N
NOSS 8 (A) 4.2 23:46:21 54° SW 23:47:03 90° WNW 23:50:08 10° NE
Cosmos 1633 Rocket 4.2 23:49:46 10° NNW 23:53:42 32° W 23:55:08 26° SW
